Change the Weather History Date:

Saturday, January 12, 2013

  Actual Average Record
Temperature  
Mean Temperature 24 °F -  
Max Temperature 34 °F 52 °F 66 °F (2014)
Min Temperature 14 °F 20 °F 14 °F (2013)
Degree Days  
Heating Degree Days 41    
Moisture  
Dew Point 0 °F    
Average Humidity 41    
Maximum Humidity 87    
Minimum Humidity 21    
Precipitation  
Precipitation 0.00 in - - ()
Sea Level Pressure  
Sea Level Pressure 29.92 in    
Wind  
Wind Speed 7 mph (NNW)    
Max Wind Speed 12 mph    
Max Gust Speed 18 mph    
Visibility 10 miles    
Events Snow    
Averages and records for this station are not official NWS values.
T = Trace of Precipitation, MM = Missing Value Source: NWS Daily Summary

Daily Weather History Graph

Daily Weather History Graph

Search for Another Location

Airport or City:

Trip Planner

Search our weather history database for the weather conditions in past years. The results will help you decide how hot, cold, wet, or windy it might be!

Date:

Astronomy

Jan. 12, 2013 Rise Set
Actual Time 7:13 AM MST 5:19 PM MST
Civil Twilight 6:46 AM MST 5:46 PM MST
Nautical Twilight 6:15 AM MST 6:17 PM MST
Astronomical Twilight 5:45 AM MST 6:47 PM MST
Moon 7:39 AM MST (1/12) 6:45 PM MST (1/12)
Length of Visible Light 11h 00m
Length of Day
10h 05m
New Moon, 1% of the Moon is Illuminated
Jan 12
New Moon
Jan 18
First Quarter
Jan 26
Full
Feb 3
Last Quarter
Feb 10
New

Hourly Weather History & Observations

Time (MST) Temp. Windchill Dew Point Humidity Pressure Visibility Wind Dir Wind Speed Gust Speed Precip Events Conditions
12:15 AM 22.6 °F 13.4 °F -6.7 °F 27% 29.90 in 10.0 mi North 8.1 mph - N/A   Clear
12:35 AM 22.6 °F 13.4 °F -6.9 °F 27% 29.89 in 10.0 mi NNW 8.1 mph - N/A   Clear
12:55 AM 21.7 °F 10.2 °F -6.9 °F 28% 29.89 in 10.0 mi NNW 11.5 mph - N/A   Clear
1:15 AM 19.8 °F 10.8 °F -6.2 °F 32% 29.88 in 10.0 mi WNW 6.9 mph - N/A   Clear
1:35 AM 21.9 °F 13.4 °F -6.0 °F 29% 29.89 in 10.0 mi NNW 6.9 mph - N/A   Clear
1:55 AM 21.2 °F 13.6 °F -6.9 °F 29% 29.88 in 10.0 mi North 5.8 mph - N/A   Scattered Clouds
2:15 AM 20.1 °F 10.3 °F -7.1 °F 30% 29.89 in 10.0 mi North 8.1 mph - N/A   Scattered Clouds
2:35 AM 19.4 °F 11.5 °F -6.9 °F 31% 29.88 in 10.0 mi North 5.8 mph - N/A   Clear
2:55 AM 18.9 °F 8.0 °F -7.6 °F 31% 29.88 in 10.0 mi North 9.2 mph - N/A   Clear
3:15 AM 18.0 °F 9.8 °F -7.8 °F 32% 29.89 in 10.0 mi North 5.8 mph - N/A   Clear
3:35 AM 17.6 °F 9.3 °F -8.0 °F 32% 29.88 in 10.0 mi North 5.8 mph - N/A   Clear
3:55 AM 16.9 °F 5.5 °F -8.1 °F 33% 29.87 in 10.0 mi North 9.2 mph - N/A   Clear
4:15 AM 16.7 °F 7.2 °F -8.1 °F 33% 29.87 in 10.0 mi North 6.9 mph - N/A   Clear
4:35 AM 15.6 °F 8.3 °F -8.0 °F 35% 29.88 in 10.0 mi NW 4.6 mph - N/A   Clear
4:55 AM 15.1 °F 6.4 °F -7.6 °F 36% 29.88 in 10.0 mi NW 5.8 mph - N/A   Clear
5:15 AM 15.8 °F 7.2 °F -8.0 °F 34% 29.88 in 10.0 mi North 5.8 mph - N/A   Scattered Clouds
5:35 AM 14.5 °F 5.7 °F -7.1 °F 38% 29.88 in 10.0 mi WNW 5.8 mph - N/A   Mostly Cloudy
5:55 AM 14.5 °F 4.6 °F -6.5 °F 39% 29.89 in 10.0 mi NW 6.9 mph - N/A   Overcast
6:15 AM 15.4 °F 5.6 °F -7.1 °F 37% 29.90 in 10.0 mi NW 6.9 mph - N/A   Overcast
6:35 AM 15.4 °F 6.8 °F -6.5 °F 37% 29.91 in 10.0 mi NNW 5.8 mph - N/A   Mostly Cloudy
6:55 AM 16.3 °F 5.7 °F -7.6 °F 34% 29.92 in 10.0 mi NNW 8.1 mph - N/A   Scattered Clouds
7:15 AM 16.5 °F 6.0 °F -7.2 °F 35% 29.93 in 10.0 mi NW 8.1 mph - N/A   Scattered Clouds
7:35 AM 16.2 °F 5.5 °F -7.4 °F 35% 29.94 in 10.0 mi NNW 8.1 mph - N/A   Scattered Clouds
7:55 AM 15.8 °F 6.1 °F -6.7 °F 37% 29.95 in 10.0 mi NNW 6.9 mph - N/A   Scattered Clouds
8:15 AM 17.4 °F 7.1 °F -6.0 °F 35% 29.95 in 10.0 mi NNW 8.1 mph - N/A   Scattered Clouds
8:35 AM 17.4 °F 7.1 °F -6.7 °F 34% 29.96 in 10.0 mi NNW 8.1 mph - N/A   Clear
8:55 AM 19.4 °F 9.5 °F -6.7 °F 31% 29.97 in 10.0 mi NNW 8.1 mph - N/A   Clear
9:15 AM 21.0 °F 10.6 °F -5.6 °F 31% 29.97 in 10.0 mi North 9.2 mph - N/A   Clear
9:35 AM 23.0 °F 14.7 °F -5.3 °F 29% 29.97 in 10.0 mi North 6.9 mph - N/A   Clear
9:55 AM 24.8 °F 15.3 °F -4.4 °F 28% 29.96 in 10.0 mi North 9.2 mph - N/A   Clear
10:15 AM 25.9 °F 17.4 °F -4.0 °F 27% 29.96 in 10.0 mi NNW 8.1 mph - N/A   Clear
10:35 AM 27.9 °F 18.4 °F -3.8 °F 25% 29.94 in 10.0 mi North 10.4 mph - N/A   Clear
10:55 AM 29.1 °F 20.0 °F -3.8 °F 24% 29.94 in 10.0 mi North 10.4 mph - N/A   Clear
11:35 AM 30.4 °F 22.9 °F -3.3 °F 23% 29.91 in 10.0 mi North 8.1 mph - N/A   Clear
11:55 AM 31.8 °F 24.6 °F -2.6 °F 23% 29.89 in 10.0 mi North 8.1 mph - N/A   Clear
12:15 PM 32.0 °F 24.8 °F -2.6 °F 23% 29.89 in 10.0 mi NNW 8.1 mph - N/A   Clear
12:35 PM 32.9 °F 28.5 °F -3.1 °F 21% 29.87 in 10.0 mi North 4.6 mph - N/A   Scattered Clouds
12:55 PM 34.0 °F 26.6 °F -2.4 °F 21% 29.86 in 10.0 mi North 9.2 mph - N/A   Mostly Cloudy
1:15 PM 34.5 °F 29.4 °F -2.0 °F 21% 29.85 in 10.0 mi NNE 5.8 mph - N/A   Overcast
1:35 PM 33.3 °F 28.9 °F -2.7 °F 21% 29.85 in 10.0 mi NNE 4.6 mph - N/A   Overcast
1:55 PM 32.2 °F 28.9 °F 3.6 °F 30% 29.86 in 10.0 mi SSW 3.5 mph 18.4 mph N/A   Overcast
2:15 PM 32.4 °F 23.5 °F 3.6 °F 30% 29.86 in 10.0 mi South 11.5 mph 16.1 mph N/A   Overcast
2:35 PM 32.0 °F 27.5 °F 1.6 °F 27% 29.86 in 10.0 mi SSW 4.6 mph - N/A   Overcast
2:55 PM 32.0 °F - 0.9 °F 27% 29.87 in 10.0 mi Calm Calm - N/A   Overcast
3:15 PM 32.0 °F - -0.0 °F 26% 29.88 in 10.0 mi Calm Calm - N/A   Overcast
3:35 PM 32.0 °F - -0.2 °F 25% 29.89 in 10.0 mi Calm Calm - N/A   Overcast
3:55 PM 31.1 °F 25.4 °F 3.9 °F 32% 29.89 in 10.0 mi North 5.8 mph 16.1 mph N/A   Overcast
4:15 PM 30.2 °F 26.7 °F 8.4 °F 40% 29.91 in 10.0 mi WSW 3.5 mph - N/A   Overcast
4:35 PM 28.2 °F 22.0 °F 16.9 °F 63% 29.92 in 4.0 mi West 5.8 mph - N/A Snow Light Snow
4:55 PM 26.6 °F 18.2 °F 20.7 °F 78% 29.93 in 2.5 mi WNW 8.1 mph - N/A Snow Light Snow
5:15 PM 25.7 °F 19.0 °F 21.4 °F 84% 29.94 in 5.0 mi WNW 5.8 mph - N/A Snow Light Snow
5:35 PM 25.7 °F 21.5 °F 21.0 °F 82% 29.94 in 10.0 mi WNW 3.5 mph - N/A   Overcast
6:15 PM 25.7 °F 20.1 °F 20.5 °F 81% 29.93 in 10.0 mi WSW 4.6 mph - N/A   Overcast
6:35 PM 25.7 °F 21.5 °F 19.9 °F 79% 29.93 in 10.0 mi WSW 3.5 mph - N/A   Overcast
6:55 PM 24.6 °F 18.8 °F 19.8 °F 82% 29.93 in 10.0 mi West 4.6 mph - N/A   Overcast
7:15 PM 22.8 °F 16.7 °F 18.7 °F 84% 29.94 in 10.0 mi WNW 4.6 mph - N/A   Mostly Cloudy
7:35 PM 23.5 °F 19.1 °F 19.4 °F 84% 29.94 in 10.0 mi North 3.5 mph - N/A   Mostly Cloudy
7:55 PM 21.0 °F 12.4 °F 17.6 °F 87% 29.95 in 10.0 mi WNW 6.9 mph - N/A   Scattered Clouds
8:15 PM 20.1 °F 12.3 °F 15.6 °F 83% 29.95 in 10.0 mi West 5.8 mph - N/A   Clear
8:35 PM 19.6 °F 11.7 °F 11.5 °F 71% 29.96 in 10.0 mi WNW 5.8 mph - N/A   Clear
8:55 PM 21.9 °F 12.5 °F 2.3 °F 43% 29.97 in 10.0 mi NW 8.1 mph - N/A   Clear
9:15 PM 20.5 °F - 3.0 °F 47% 29.98 in 10.0 mi Calm Calm - N/A   Clear
9:35 PM 21.0 °F - 1.8 °F 43% 29.99 in 10.0 mi Calm Calm - N/A   Clear
9:55 PM 19.4 °F - 0.9 °F 45% 29.99 in 10.0 mi Calm Calm - N/A   Clear
10:15 PM 18.3 °F 13.1 °F 1.6 °F 48% 30.00 in 10.0 mi North 3.5 mph - N/A   Clear
10:35 PM 18.1 °F 10.0 °F 5.2 °F 57% 30.00 in 10.0 mi NNW 5.8 mph - N/A   Clear
10:55 PM 17.8 °F 9.6 °F 2.8 °F 52% 30.01 in 10.0 mi NNW 5.8 mph - N/A   Clear
11:15 PM 18.1 °F 8.9 °F 2.5 °F 51% 30.02 in 10.0 mi North 6.9 mph - N/A   Clear
11:35 PM 18.9 °F 10.8 °F 0.5 °F 45% 30.02 in 10.0 mi North 5.8 mph - N/A   Clear
11:55 PM 17.1 °F 8.7 °F 1.0 °F 50% 30.02 in 10.0 mi West 5.8 mph - N/A   Clear